Regional Weather Roundup
Issued by NWS

Home | Current Version | Previous Version | Text Only | Print | Product List | Glossary On
Versions: 1 2 3 4 5 6 7 8 9 10 11 12 13 14 15 16 17 18 19 20 21 22 23 24 25 26 27
000
ASUS44 KLIX 201213
RWRLA
LOUISIANA WEATHER ROUNDUP
NATIONAL WEATHER SERVICE NEW ORLEANS LA
700 AM CDT THU JUL 20 2017

NOTE: "FAIR" INDICATES FEW OR NO CLOUDS BELOW 12,000 FEET WITH NO
      SIGNIFICANT WEATHER AND/OR OBSTRUCTIONS TO VISIBILITY.
      SKY/WX - SKY CONDITION AND SIGNIFICANT WEATHER.
      TMP - AIR TEMPERATURE.    DP   - DEWPOINT TEMPERATURE.
      RH  - RELATIVE HUMIDITY.  PRES - PRESSURE.
      HX  - HEAT INDEX.         WCI  - WIND CHILL INDEX.

*  THESE STATIONS ARE NOT NWS OR FAA STATIONS AND ARE NOT UNDER
   NWS QUALITY CONTROL.

LAZ040-048-061>063-065-066-069-201300-
SOUTHEAST LOUISIANA

CITY           SKY/WX    TMP DP  RH WIND       PRES   REMARKS
N.O. INTL ARPT PTCLDY    78  77  96 CALM      30.11R
6HR MIN TEMP:  76; 6HR MAX TEMP:  79;

N.O. LAKEFRONT CLEAR     84  77  79 N7        30.11R
6HR MIN TEMP:  83; 6HR MAX TEMP:  85;

N.O. DOWNTOWN*   N/A     83  76  79 CALM        N/A
6HR MIN TEMP:  81; 6HR MAX TEMP:  83;

RESERVE*       FAIR      77  74  91 CALM      30.11R
6HR MIN TEMP:  77; 6HR MAX TEMP:  78;

SLIDELL        CLEAR     77  74  90 N3        30.11R
6HR MIN TEMP:  75; 6HR MAX TEMP:  79;

BATON ROUGE    CLEAR     76  74  93 CALM      30.11R
6HR MIN TEMP:  75; 6HR MAX TEMP:  78;

BOOTHVILLE     CLEAR     81  79  94 NW3       30.11R
6HR MIN TEMP:  80; 6HR MAX TEMP:  82;

BELLE CHASSE   NOT AVBL
BOGALUSA*      FAIR      76  73  88 CALM      30.13R
6HR MIN TEMP:  75; 6HR MAX TEMP:  78;

GALLIANO*      SUNNY     73  70  92 CALM      30.11R FOG
6HR MIN TEMP:  72; 6HR MAX TEMP:  74;

NEW ROADS*     FAIR      74  74  99 CALM      30.12R
6HR MIN TEMP:  73; 6HR MAX TEMP:  77;

GONZALES*      FAIR      74  74  97 CALM      30.10S
6HR MIN TEMP:  73; 6HR MAX TEMP:  76;

HAMMOND*       PTCLDY    75  72  88 CALM      30.11R
HOUMA*         CLEAR     75  73  94 CALM      30.12R FOG
PORT FOURCHON* SUNNY     81  79  94 N3        30.11R

$$

LAZ041-044-053-054-201300-
SOUTHWEST LOUISIANA

CITY           SKY/WX    TMP DP  RH WIND       PRES   REMARKS
LAKE CHARLES   CLEAR     80  77  90 CALM      30.11R
6HR MIN TEMP:  79; 6HR MAX TEMP:  80;

LAFAYETTE      CLEAR     77  77 100 CALM      30.11R
6HR MIN TEMP:  76; 6HR MAX TEMP:  77;

PATTERSON      CLEAR     76  75  97 CALM      30.12R
6HR MIN TEMP:  75; 6HR MAX TEMP:  76;

SALT POINT       N/A     78  76  93 CALM      30.10R
6HR MIN TEMP:  76; 6HR MAX TEMP:  79;

NEW IBERIA     CLEAR     77  73  87 CALM      30.12R
6HR MIN TEMP:  75; 6HR MAX TEMP:  78; 6HR PCP: TRACE;

CHENAULT AIRPK CLEAR     79  77  94 CALM      30.11R

$$

LAZ027-028-201300-
CENTRAL LOUISIANA

CITY           SKY/WX    TMP DP  RH WIND       PRES   REMARKS
FORT POLK      CLEAR     77  75  95 W3        30.11S
6HR MIN TEMP:  75; 6HR MAX TEMP:  77;

ALEXANDRIA INT CLEAR     75  75 100 CALM      30.10R FOG
6HR MIN TEMP:  74; 6HR MAX TEMP:  78;

ALEXANDRIA     PTCLDY    74  74 100 CALM      30.12R FOG
6HR MIN TEMP:  73; 6HR MAX TEMP:  76;


$$

LAZ001-002-201300-
NORTHWEST LOUISIANA

CITY           SKY/WX    TMP DP  RH WIND       PRES   REMARKS
SHREVEPORT     CLEAR     78  76  93 CALM      30.11R
6HR MIN TEMP:  76; 6HR MAX TEMP:  82;

BARKSDALE AFB  CLEAR     76  76 100 CALM      30.12R
6HR MIN TEMP:  76; 6HR MAX TEMP:  79;

DTN SHREVEPORT CLEAR     82  75  79 CALM      30.12R
6HR MIN TEMP:  81; 6HR MAX TEMP:  84;


$$

LAZ014-016-201300-
NORTHEAST LOUISIANA

CITY           SKY/WX    TMP DP  RH WIND       PRES   REMARKS
MONROE         CLEAR     77  74  90 CALM      30.12R
6HR MIN TEMP:  76; 6HR MAX TEMP:  79;

TALLULAH       CLEAR     75  74  96 CALM      30.12R
6HR MIN TEMP:  73; 6HR MAX TEMP:  76;


$$





USA.gov is the U.S. government's official web portal to all federal, state and local government web resources and services.